Location: Newark
(34.2872°N, 118.4389°W)
Time: 01:38:48
(UTC+00:00)

Hubble Space Telescope - Visible Passes

Search period start: 29 January 2020 00:00
Search period end: 08 February 2020 00:00
Orbit: 536 x 540 km, 28.5° (Epoch: 28 January)

Date Brightness Start Highest point End Pass type
(mag) Time Alt. Az. Time Alt. Az. Time Alt. Az.
29 Jan 3.2 13:41:57 10° SSW 13:44:46 18° SSE 13:47:35 10° ESE visible
30 Jan 2.9 13:30:56 10° SSW 13:34:03 21° SSE 13:37:11 10° ESE visible
31 Jan 2.6 13:21:07 16° SSW 13:23:22 24° SSE 13:26:43 10° ESE visible
01 Feb 2.3 13:11:20 23° SSW 13:12:39 27° SSE 13:16:11 10° ESE visible
02 Feb 2.1 13:01:27 29° S 13:01:59 30° S 13:05:37 10° ESE visible
03 Feb 2.0 12:51:31 32° SSE 12:51:31 32° SSE 12:55:01 10° ESE visible
04 Feb 2.3 12:41:32 31° SSE 12:41:32 31° SSE 12:44:24 10° ESE visible
04 Feb 2.1 14:17:47 10° WSW 14:21:29 32° S 14:25:10 10° SE visible
05 Feb 2.6 12:31:32 26° SE 12:31:32 26° SE 12:33:46 10° ESE visible
05 Feb 2.2 14:07:12 10° WSW 14:10:48 29° S 14:14:23 10° SE visible
06 Feb 3.1 12:21:31 20° SE 12:21:31 20° SE 12:23:06 10° ESE visible
06 Feb 2.3 13:56:51 11° WSW 14:00:06 26° SSW 14:03:34 10° SE visible
07 Feb 3.5 12:11:31 15° ESE 12:11:31 15° ESE 12:12:25 10° ESE visible
07 Feb 2.4 13:46:51 13° WSW 13:49:25 23° SSW 13:52:42 10° SE visible
